Regional Weather Roundup
Issued by NWS

Home | Current Version | Previous Version | Graphics & Text | Print | Product List | Glossary On
Versions: 1 2 3 4 5 6 7 8 9 10 11 12 13 14 15 16 17 18 19 20 21 22 23 24 25 26 27 28 29 30 31 32 33 34 35 36 37 38 39 40 41 42 43 44 45 46 47 48 49 50
000
ASUS45 KABQ 250110
RWRNM
NEW MEXICO REGIONAL WEATHER ROUNDUP
NATIONAL WEATHER SERVICE ALBUQUERQUE NM
700 PM MDT SUN MAY 24 2015

NOTE: "FAIR" MEANS FEW OR NO CLOUDS BELOW 12,000 FEET AGL WITH NO
       SIGNIFICANT WEATHER OR OBSTRUCTIONS TO VISION.

      THIS PRODUCT IS RELEASED AS TWO VERSIONS.  ONE VERSION NEAR
      THE TOP OF THE HOUR CONTAINING PRELIMINARY DATA FROM ALBUQUERQUE
      AND OTHER STATIONS.  A FINAL VERSION WITH ADDITIONAL DATA IS
      ISSUED ABOUT 10 MINUTES AFTER THE HOUR.

NMZ501-503-504-510>518-250200-
NORTHWEST PLATEAU/NORTHCENTRAL MOUNTAINS

CITY           SKY/WX    TMP DP  RH WIND       PRES   REMARKS
FARMINGTON     MOSUNNY   58  41  53 SW12      29.90S
LOS ALAMOS     MOSUNNY   56  33  42 W8        29.97S
SANTA FE       MOSUNNY   61  31  32 NW12      29.91S
TAOS           PTSUNNY   54  34  47 NW10      29.97S
ANGEL FIRE     FAIR      46  34  65 W8        29.99F

$$
NMZ402-403-502-505>509-250200-
WESTCENTRAL MOUNTAINS/SOUTHWEST MOUNTAINS

CITY           SKY/WX    TMP DP  RH WIND       PRES   REMARKS
GALLUP         MOSUNNY   58  36  43 W15       29.96F
GRANTS         MOSUNNY   60  33  36 NW17G25   29.96S
SILVER CITY    MOSUNNY   68  19  15 W9G20     29.93S

$$
NMZ407-409-411-412-250200-
SOUTHERN DESERTS

CITY           SKY/WX    TMP DP  RH WIND       PRES   REMARKS
LORDSBURG      MOCLDY    73  23  15 NW12      29.86S
DEMING         MOSUNNY   76  24  14 W13G18    29.85S
LAS CRUCES     SUNNY     76  19  11 W14G22    29.86S
HOLLOMAN AFB   MOSUNNY   76  19  11 W14       29.82S
ALAMOGORDO     MOSUNNY   75  19  12 SW8G18    29.84S
T OR C         MOSUNNY   76  15  10 SW17G24   29.81R

$$
NMZ519>523-250200-
CENTRAL VALLEYS/CENTRAL HIGHLANDS

CITY           SKY/WX    TMP DP  RH WIND       PRES   REMARKS
ALBUQUERQUE    PTSUNNY   66  35  31 N14       29.88F
DOUBLE EAGLE   PTSUNNY   63  37  39 NW17      29.90F
MORIARTY ARPT  FAIR      61  34  35 NW16G22   29.92S
CLINES CORNERS NOT AVBL
BELEN          TSTM      56  44  65 N8        29.88S
SOCORRO        FAIR      72  23  16 CALM      29.82S

$$
NMZ524>526-539-540-250200-
SOUTHCENTRAL MOUNTAINS

CITY           SKY/WX    TMP DP  RH WIND       PRES   REMARKS
RUIDOSO        MOSUNNY   61  23  23 SW7       29.97F

$$
NMZ527>531-250200-
NORTHEAST HIGHLANDS/NORTHEAST PLAINS

CITY           SKY/WX    TMP DP  RH WIND       PRES   REMARKS
LAS VEGAS      PTSUNNY   59  32  36 W10       29.92R
RATON          MOSUNNY   60  31  33 W12       29.84S
CLAYTON        MOSUNNY   65  44  46 W5        29.77F

$$
NMZ532>537-250200-
EASTCENTRAL PLAINS

CITY           SKY/WX    TMP DP  RH WIND       PRES   REMARKS
TUCUMCARI      SUNNY     74  35  24 W16       29.75S
CANNON AFB     PTCLDY    70  42  35 S7        29.81S
CLOVIS AIRPORT PTCLDY    72  41  33 SW9       29.82

$$
NMZ028-029-538-250200-
SOUTHEAST PLAINS

CITY           SKY/WX    TMP DP  RH WIND       PRES   REMARKS
ROSWELL        MOSUNNY   80  26  13 W9        29.76S
ARTESIA        SUNNY     81  25  12 SW18G28   29.79R
CARLSBAD       CLEAR     81  25  12 SW13      29.79S
HOBBS          CLEAR     75  32  20 SW7       29.83S


$$


USA.gov is the U.S. government's official web portal to all federal, state and local government web resources and services.